Hovedside
METAR-TAF:

METAR-TAF

Lufthavner :

Hemavan, Sverige

Hemavan flyplass

breddegrad: 65-48-22N, lengdegrad: 015-04-58E, høyde over havet: 458 m

Gjeldene værobservasjon

Denne rapporten ble laget for 24 minutter siden, klokken 07:20 UTC
Vind 14 kt fra Øst-sørøst
Temperatur -1°C
Luftfuktighet 69%
Trykk 1022 hPa
Sikt 10 km eller mer

METAR: ESUT 240720Z AUTO 12014KT 9999 OVC027/// M01/M06 Q1022

Tid: 09:44 (07:44 UTC)


TAF: fraværende

Værobservasjoner og værvarsel for over 4000 flyplasser (METAR- og TAF-rapporter).

Tilgjengelige stasjoner er representert av de røde og gule prikkene på kartet.

Hold musepekeren over prikken for å se navnet på stasjonen.

Klikk så for å se værobservasjoner og -varsler.

For å forandre kartet kan du klikke på den grønne knappen med svart kryss for å zoome inn, på den grønne knappen med strek for å zoome ut, eller på de grønne pilene for å se tilstøtende kart.


METAR-TAF: